星链-32533 (STARLINK-32533)

导读

STARLINK-32533是美国SpaceX公司星链(Starlink)项目的卫星,于北京时间2024年10月30日发射升空,进入近地轨道。星链项目旨在通过部署数千颗低轨卫星,构建覆盖全球的高速卫星互联网,为网络基础设施匮乏的偏远地区提供高速稳定的互联网接入服务,推动缩小全球数字鸿沟。STARLINK-32533的成功入轨,进一步扩大了星链星座的规模,巩固了星链的全球网络覆盖能力,也延续了SpaceX在商业航天领域的高频发射节奏,凸显其在卫星互联网领域的领先地位。

Basic Information
目录编号:
61706
目录名称:
STARLINK-32533
国际标识:
2024-195V
轨道中心:
EARTH
卫星名称:
星链-32533
卫星全名:
星链-32533 (STARLINK-32533)
卫星状态:
在轨 (已飞行674 天)
发射日期:
2024-10-30 UTC
国别 :
美国 (US)
星等 :
--
Orbit Information
数据来源 国际轨道数据 AOE轨道数据
星历时间 2026-09-04T05:05:37+0800
10小时前
查看轨道信息
2026-09-02T09:00:00+0800
2天前
查看轨道信息
半长轴 6840.885km 6840.83km
偏心率 0.0001194 0.0001087
轨道倾角 53.160° 53.162°
近地点辐角 81.560° 83.767°
升交点赤经 43.386° 51.979°
平近点角 278.554° 202.229°
近地点 461.931km 461.949km
远地点 463.565km 463.437km
周期 93.849分钟 93.848分钟
每日圈数 15.343851 15.344037
Detailed Information
固有亮度:
5
最大亮度:
2.5
卫星平台:
Starlink V1.0
覆盖范围:
全球
运营商:
太空探索技术公司
运营商所在国:
美国
制造商(研发单位):
太空探索技术公司
制造商所在国:
美国
使用方式:
暂无
Satellite Introduction
Starlink 计划是 SpaceX 推出的全球卫星互联网项目,通过发射低轨道卫星,为全球尤其是偏远地区提供高速、低延迟的互联网服务。自 2019 年起,Starlink 已部署数千颗卫星,旨在缩小全球数字鸿沟,推动互联网普及。该项目还为军事、航空等行业提供通信支持,带来广泛经济效益。
2D Orbit Map
3D Orbit Map
Orbit Altitude Analysis Chart
Orbit Inclination Analysis Chart
Orbit Comprehensive Analysis Chart
View Comprehensive Chart
Conjunction Data List
Event ID Objects TCA Miss Dist (km) Collision Risk Probability Collision Risk Index (CRI) Action
CDM_260904-182906-170606-580321
2026-09-04T
18:29:51+0000
0.393 km
远距离
2.626871E-4 高风险 0.83
CDM_260903-103305-717806-170623
OBJECT N (57178)
2026-09-03T
10:33:39+0000
2.328 km
极远距离
1.719679E-6 低风险 0.4
CDM_260905-124605-264606-170621
2026-09-05T
12:46:50+0000
2.542 km
极远距离
1.423621E-6 低风险 0.38